Regional Weather Roundup
Issued by NWS Charleston, SC

Current Version | Previous Version | Graphics & Text | Print | Product List | Glossary On
Versions: 1 2 3 4 5 6 7 8 9 10 11 12 13 14 15 16 17 18 19 20 21 22 23 24 25 26 27 28 29 30 31 32 33 34 35 36 37 38 39 40 41 42 43 44 45 46 47 48 49 50
343 ASUS42 KCHS 290628 RWRCHS REGIONAL WEATHER ROUNDUP NATIONAL WEATHER SERVICE CHARLESTON SC 200 AM EDT FRI APR 29 2016 NOTE: "FAIR" INDICATES FEW OR NO CLOUDS BELOW 12,000 FEET WITH NO SIGNIFICANT WEATHER AND/OR OBSTRUCTIONS TO VISIBILITY. NOT ALL STATIONS ARE QUALITY CONTROLLED. USE DATA WITH CAUTION... ESPECIALLY DEWPOINT OBSERVATIONS. SCZ027-030-031-034>040-042>050-290700- ...SOUTHEAST SOUTH CAROLINA... CITY SKY/WX TMP DP RH WIND PRES REMARKS N CHARLESTON PTCLDY 69 67 93 SW3 29.92S 6HR MIN TEMP: 69; 6HR MAX TEMP: 72; WATERFRONT PRK N/A 72 70 93 VRB2 29.91S MOUNT PLEASANT FAIR 66 66 100 CALM 29.92F FOG JOHNS ISLAND NOT AVBL PINOPOLIS N/A 72 68 88 SW8 29.83S MONCKS CORNER FAIR 66 63 88 SW7 29.91F SUMMERVILLE FAIR 66 66 100 S3 29.93F BEAUFORT MCAS MOCLDY 72 68 87 SW8 29.94R 6HR MIN TEMP: 72; 6HR MAX TEMP: 77; BEAUFORT ARPT FAIR 73 68 83 SW7 29.93S HILTON HEAD IS PTCLDY 73 70 88 SW7 29.95S WALTERBORO CLEAR 72 70 94 SW3 29.93S ALLENDALE FAIR 70 68 94 CALM 29.92F ...SOUTHERN MIDLANDS AND PEE DEE... CITY SKY/WX TMP DP RH WIND PRES REMARKS GEORGETOWN FAIR 68 64 88 SW6 29.91F KINGSTREE FAIR 68 64 88 CALM 29.89F ORANGEBURG CLEAR 73 67 81 W8 29.91F 6HR MIN TEMP: 72; 6HR MAX TEMP: 79; BARNWELL FAIR 73 72 94 SW7 29.93S AIKEN FAIR 66 64 94 S5 29.96S MANNING NOT AVBL COLUMBIA CLEAR 73 68 84 W7 29.90S 6HR MIN TEMP: 73; 6HR MAX TEMP: 83; SUMTER CLEAR 71 68 88 SW10 29.87S 6HR MIN TEMP: 71; 6HR MAX TEMP: 78; FLORENCE CLEAR 70 67 90 SW6 29.88F 6HR MIN TEMP: 70; 6HR MAX TEMP: 81; 6HR PCP: TRACE; MYRTLE BEACH CLEAR 70 63 78 W7 29.91F N MYRTLE BEACH CLEAR 70 67 90 SW16 29.88F 6HR MIN TEMP: 70; 6HR MAX TEMP: 72; $$ GAZ063-065-086>088-099>101-113>116-118-119-134>141-150-290700- ...SOUTHEAST GEORGIA... CITY SKY/WX TMP DP RH WIND PRES REMARKS SAVANNAH ARPT CLOUDY 72 67 84 SW7 29.95F 6HR MIN TEMP: 72; 6HR MAX TEMP: 78; HUNTER AAF NOT AVBL FORT STEWART NOT AVBL STATESBORO CLOUDY 71 71 98 CALM 29.94S SYLVANIA CLEAR 68 68 100 CALM 29.94F FOG CLAXTON FAIR 65 65 100 CALM 29.95S ...CSRA...CENTRAL AND FAR SOUTHEAST GEORGIA... CITY SKY/WX TMP DP RH WIND PRES REMARKS THOMSON CLEAR 72 69 93 W3 29.98S AUGUSTA-BUSH CLEAR 71 67 87 W7 29.92F 6HR MIN TEMP: 71; 6HR MAX TEMP: 78; AUGUSTA-DANIEL CLEAR 74 66 76 VRB3 29.94S SWAINSBORO FAIR 68 66 94 NW3 29.95F VIDALIA CLEAR 68 66 94 SW3 29.95F EASTMAN FAIR 72 72 100 W3 29.99S HAZLEHURST FAIR 70 70 100 CALM 29.95F ALMA PTCLDY 68 67 96 CALM 29.97S 6HR MIN TEMP: 66; 6HR MAX TEMP: 77; WAYCROSS CLEAR 69 69 100 SW5 29.97F FOG JESUP FAIR 70 70 100 CALM 29.97S BAXLEY FAIR 70 68 94 CALM 29.96S BRUNSWICK PTCLDY 73 70 88 W6 29.96F SAINT SIMONS PTCLDY 71 68 90 SW8 29.96F 6HR MIN TEMP: 70; 6HR MAX TEMP: 73; $$ SCZ027-028-034-036>038-045-046-048>050-GAZ119-141-290700- ...LAKE AND SUPPLEMENTAL COASTAL OBSERVATIONS... STATION/POSITION TIME TEMP WIND PRES WAVE SWELL AIR SEA DIR/SP/G HT/PER HT/PER/DIR (UTC) (F) (DEG/KT/KT) (MB) (FT/S) (FT/S/D) WINYAH BAY 0500 71 210/ 7 1012.0S LAKE MURRAY 0500 74 260/ 9/ 13 1012.2R ACE BASIN NERRS 0545 72 230/ 1 1014.0S FORT PULASKI 0600 73 71 210/ 5/ 10 1014.2F SAPELO ISLAND 0600 72 230/ 5 1014.0F $$ ANZ835-935-AMZ111-154-330-350-352-354-370-450-454-472-290700- ...C-MAN AND BUOY OBSERVATIONS... STATION/POSITION TIME TEMP WIND PRES WAVE SWELL AIR SEA DIR/SP/G HT/PER HT/PER/DIR (UTC) (F) (DEG/KT/KT) (MB) (FT/S) (FT/S/D) BUOY 41004 0550 74 71 220/ 14/ 16 1013.1F 3/ 5 2/ 8 BUOY 41008 NOT AVBL FOLLY BEACH CMAN 0600 71 230/ 6/ 8 1013.6F CAPERS NEARSHORE 0508 71 70 220/ 12/ 17 1013.3R FRIPP NEARSHORE 0608 72 71 230/ 14/ 16 1012.9S STATION/POSITION TIME TEMP WIND PRES WAVE SWELL AIR SEA DIR/SP/G HT/PER HT/PER/DIR (UTC) (F) (DEG/KT/KT) (MB) (FT/S) (FT/S/D) 5E ST. MARYS GA 0521 72 N/A 2/11 FRYING PAN BUOY 0600 73 70 220/ 16/ 17 1011.9F BUOY 41025 0550 72 71 240/ 14/ 16 1011.8F 4/ 5 2/130/ 9 CAPE LOOKOUT NC 0600 71 270/ 10/ 13 1012.1F BUOY 41002 0450 71 71 180/ 12/ 14 1015.8 2/ 9 2/ 90/ 9 BUOY 41010 0520 75 76 170/ 10/ 12 1016.1F ST AUGUSTINE FL 0600 73 69 220/ 5/ 5 1015.7F $$

USA.gov is the U.S. government's official web portal to all federal, state and local government web resources and services.